Location: Brunembert
(50.7122°N, 1.8935°E)
Time: 05:00:28
(UTC+00:00)

BREEZE M DEB (TANK) - Pass Details

Date: 22 April 2021
Orbit: 273 x 14498 km, 49.5° (Epoch: 06 May)

Event Time Altitude Azimuth Distance (km) Brightness Sun altitude
Rises 20:19:53 0° 246° (WSW) 6,903 8.3 -11.9°
Reaches altitude 10° 20:26:21 10° 244° (WSW) 4,160 7.1 -12.7°
Maximum altitude 20:34:22 58° 168° (SSE) 769 2.7 -13.7°
Enters shadow 20:36:23 20° 93° (E) 1,153 3.5 -14.0°
